Location: Goheenville
(40.9070°N, 79.3720°W)
Time: 11:33:23
(UTC-04:00)

Meteor 2-10 Rocket - Visible Passes

Search period start: 27 April 2015 00:00
Search period end: 07 May 2015 00:00
Orbit: 734 x 885 km, 81.2° (Epoch: 26 April)

Date Brightness Start Highest point End Pass type
(mag) Time Alt. Az. Time Alt. Az. Time Alt. Az.
27 Apr 5.4 21:21:25 14° E 21:21:56 14° E 21:24:50 10° NE visible
27 Apr 3.8 23:02:32 60° SW 23:03:29 74° W 23:09:02 10° N visible
28 Apr 3.6 22:37:52 52° S 22:39:18 81° E 22:44:50 10° NNE visible
29 Apr 6.2 00:19:13 10° W 00:22:07 14° WNW 00:24:42 10° NW visible
29 Apr 3.7 22:13:09 37° SSE 22:15:08 58° E 22:20:32 10° NNE visible
29 Apr 5.9 23:54:14 12° WSW 23:57:40 19° WNW 00:01:23 10° NNW visible
30 Apr 4.1 21:48:19 25° SE 21:51:00 41° E 21:56:08 10° NNE visible
30 Apr 5.5 23:29:24 13° WSW 23:33:15 26° WNW 23:37:42 10° NNW visible
01 May 4.5 21:23:23 16° SE 21:26:53 29° E 21:31:36 10° NNE visible
01 May 5.1 23:04:27 13° SW 23:08:54 35° WNW 23:13:50 10° N visible
02 May 4.9 20:58:49 10° SE 21:02:48 21° E 21:06:53 10° NE visible
02 May 4.5 22:39:21 11° SSW 22:44:36 48° WNW 22:49:50 10° N visible
03 May 3.9 22:14:46 10° SSW 22:20:21 67° W 22:25:45 10° N visible
04 May 3.6 21:50:32 10° S 21:56:08 87° ESE 22:01:34 10° N visible
04 May 6.4 23:36:50 10° W 23:39:03 12° WNW 23:40:54 10° NW visible
05 May 3.6 21:26:29 10° S 21:31:58 63° E 21:37:17 10° NNE visible
05 May 6.2 23:10:59 10° WSW 23:14:34 17° WNW 23:17:52 10° NNW visible
06 May 4.0 21:02:36 10° SSE 21:07:49 44° E 21:12:54 10° NNE visible
06 May 5.8 22:45:45 10° WSW 22:50:08 23° WNW 22:54:16 10° NNW visible
